CZ-6A DEB, 54945

Orbit data source: Space-Track

CZ-6A DEB, 54945 is space debris in SSO originally from a launch on Fri, 11 Nov 2022 UTC launched from the Taiyaun Space Center, China (TSC). Debris objects in space refer to the collection of defunct objects orbiting the Earth. Examples of debris include non-operational satellites, rocket bodies, and fragments generated from explosions, collisions, or faulty payload assembly.

Loading next visibility...
Identifier
54945, 2022-151SJ
Orbit
SSO
Country
Flag of CNCN / PRC
Related business
Manufacturer
SAST
Mission
Spacecraft
Bus & Motor
Unknown
Mass
Unknown
Launch date (UTC)
2022-11-11 (4 years ago)
Launch vehicle
Unknown
Launch site
Taiyaun Space Center, China (TSC)
Object type
Payload
Rocket body
Debris
Shape & HBR
Unknown shape, 0.1 m
Radar Cross Section
Medium (>0.1 m² and <1 m²)

Expand to show TLE details & history
Last TLE update: 2 days ago

TLE from 2 days ago
0 CZ-6A DEB
1 54945U 22151SJ  26171.34345186  .00005020  00000-0  95267-3 0  9998
2 54945  99.1383 305.6694 0068586 344.0153  15.8881 14.63241654118577
Epoch: 2026-06-20T08:14Z
TLE epoch observation values (Epoch: 2026-06-20T08:14:34.240Z)
Latitude
-0.00005°
Longitude
-86.53269°
Altitude
639.124 km
Speed
7.563 km/s
True Right ascension
20h 22m 40s
True Declination
0° 00' 00"
Sunlit
Object was in full shadow at epoch
Visualization orbit readout
Latitude
Unknown
Longitude
Unknown
Altitude
Unknown
Speed
Unknown
Apparent Right ascension
Unknown
Apparent Declination
Unknown
Sunlit
N/A
Visualization observer readout
Local Sidereal Time
21:35:36
Azimuth
Unknown
Elevation
Unknown
Doppler factor
Unknown
Orbital elements
Apogee altitude
728.257 km
Perigee altitude
631.441 km
Semi-major axis
7,057.986 km
Eccentricity
0.00686
Inclination
99.1383°
RAAN
305.6694°
Arg. of periapsis
344.0153°
True anomaly
16.10505°
Mean anomaly
15.8881°
Eccentric anomaly
15.99639°
Mean motion
3.66034 °/min
Orbital period
98.35 mins
BSTAR
0.00095267
Loading maneuver chart data...
Computing Atmospheric mass density...
Loading historical data...
Loading historical data...
Loading historical data...
Loading historical data...
Loading historical data...
Loading historical data...
Loading historical data...

Documentation

Showing up to 5 results
|